00:00:09,5DBC3CE0,0,0,19507,0,0,142
00:00:25,5DBC3EE0,0,0,19507,0,0,143
00:00:33,5DBC3FE0,0,0,19507,0,0,143
00:00:41,5DBC40E0,0,0,19507,0,0,143
00:00:57,5DBC42E0,0,0,19507,0,0,144
00:01:13,5DBC44E0,0,0,19507,0,0,144
00:01:29,5DBC46E0,0,0,19507,0,0,144
00:01:45,5DBC48E0,0,0,19507,0,0,144
00:02:01,5DBC4AE0,0,0,19507,0,0,145
00:02:17,5DBC4CE0,0,0,19507,0,0,145
00:02:33,5DBC4EE0,0,0,19507,0,0,145
00:02:49,5DBC50E0,0,0,19507,0,0,146
00:03:05,5DBC52E0,0,0,19507,0,0,146
00:03:21,5DBC54E0,0,0,19507,0,0,146
00:03:37,5DBC56E0,0,0,19507,0,0,146
00:03:53,5DBC58E0,0,0,19507,0,0,145
00:04:09,5DBC5AE0,0,0,19507,0,0,144
00:04:25,5DBC5CE0,0,0,19507,0,0,143
00:04:41,5DBC5EE0,0,0,19507,0,0,143
00:04:49,5DBC5FE0,0,0,19507,0,0,143
00:04:57,5DBC60E0,0,0,19507,0,0,142
00:05:13,5DBC62E0,0,0,19507,0,0,142
00:05:29,5DBC64E0,0,0,19507,0,0,141
00:05:45,5DBC66E0,0,0,19507,0,0,140
00:06:01,5DBC68E0,0,0,19507,0,0,141
00:06:17,5DBC6AE0,0,0,19507,0,0,141
00:06:33,5DBC6CE0,0,0,19507,0,0,142
00:06:49,5DBC6EE0,0,0,19507,0,0,142
00:07:05,5DBC70E0,0,0,19507,0,0,143
00:07:21,5DBC72E0,0,0,19507,0,0,143
00:07:37,5DBC74E0,0,0,19507,0,0,143
00:07:53,5DBC76E0,0,0,19507,0,0,144
00:08:09,5DBC78E0,0,0,19507,0,0,144
00:08:25,5DBC7AE0,0,0,19507,0,0,144
00:08:41,5DBC7CE0,0,0,19507,0,0,145
00:08:57,5DBC7EE0,0,0,19507,0,0,145
00:09:05,5DBC7FE0,0,0,19507,0,0,145
00:09:13,5DBC80E0,0,0,19507,0,0,145
00:09:29,5DBC82E0,0,0,19507,0,0,145
00:09:45,5DBC84E0,0,0,19507,0,0,145
00:10:01,5DBC86E0,0,0,19507,0,0,146
00:10:17,5DBC88E0,0,0,19507,0,0,146
00:10:33,5DBC8AE0,0,0,19507,0,0,145
00:10:49,5DBC8CE0,0,0,19507,0,0,144
00:11:05,5DBC8EE0,0,0,19507,0,0,144
00:11:21,5DBC90E0,0,0,19507,0,0,143
00:11:37,5DBC92E0,0,0,19507,0,0,143
00:11:53,5DBC94E0,0,0,19507,0,0,142
00:12:09,5DBC96E0,0,0,19507,0,0,141
00:12:25,5DBC98E0,0,0,19507,0,0,141
00:12:41,5DBC9AE0,0,0,19507,0,0,141
00:12:57,5DBC9CE0,0,0,19507,0,0,141
00:13:13,5DBC9EE0,0,0,19507,0,0,141
00:13:21,5DBC9FE0,0,0,19507,0,0,142
00:13:29,5DBCA0E0,0,0,19507,0,0,142
00:13:45,5DBCA2E0,0,0,19507,0,0,142
00:14:01,5DBCA4E0,0,0,19507,0,0,143
00:14:17,5DBCA6E0,0,0,19507,0,0,143
00:14:33,5DBCA8E0,0,0,19507,0,0,143
00:14:49,5DBCAAE0,0,0,19507,0,0,144
00:15:05,5DBCACE0,0,0,19507,0,0,144
00:15:21,5DBCAEE0,0,0,19507,0,0,144
00:15:37,5DBCB0E0,0,0,19507,0,0,145
00:15:53,5DBCB2E0,0,0,19507,0,0,145
00:16:09,5DBCB4E0,0,0,19507,0,0,145
00:16:25,5DBCB6E0,0,0,19507,0,0,145
00:16:41,5DBCB8E0,0,0,19507,0,0,146
00:16:57,5DBCBAE0,0,0,19507,0,0,146
00:17:13,5DBCBCE0,0,0,19507,0,0,146
00:17:29,5DBCBEE0,0,0,19507,0,0,145
00:17:37,5DBCBFE0,0,0,19507,0,0,145
00:17:45,5DBCC0E0,0,0,19507,0,0,144
00:18:01,5DBCC2E0,0,0,19507,0,0,143
00:18:17,5DBCC4E0,0,0,19507,0,0,143
00:18:33,5DBCC6E0,0,0,19507,0,0,142
00:18:49,5DBCC8E0,0,0,19507,0,0,141
00:19:05,5DBCCAE0,0,0,19507,0,0,141
00:19:21,5DBCCCE0,0,0,19507,0,0,141
00:19:37,5DBCCEE0,0,0,19507,0,0,141
00:19:53,5DBCD0E0,0,0,19507,0,0,141
00:20:09,5DBCD2E0,0,0,19507,0,0,142
00:20:25,5DBCD4E0,0,0,19507,0,0,142
00:20:41,5DBCD6E0,0,0,19507,0,0,143
00:20:57,5DBCD8E0,0,0,19507,0,0,143
00:21:13,5DBCDAE0,0,0,19507,0,0,143
00:21:29,5DBCDCE0,0,0,19507,0,0,144
00:21:45,5DBCDEE0,0,0,19507,0,0,144
00:21:53,5DBCDFE0,0,0,19507,0,0,144
00:22:01,5DBCE0E0,0,0,19507,0,0,144
00:22:17,5DBCE2E0,0,0,19507,0,0,145
00:22:33,5DBCE4E0,0,0,19507,0,0,145
00:22:49,5DBCE6E0,0,0,19507,0,0,145
00:23:05,5DBCE8E0,0,0,19507,0,0,145
00:23:21,5DBCEAE0,0,0,19507,0,0,146
00:23:37,5DBCECE0,0,0,19507,0,0,146
00:23:53,5DBCEEE0,0,0,19507,0,0,146
00:24:09,5DBCF0E0,0,0,19507,0,0,145
00:24:25,5DBCF2E0,0,0,19507,0,0,144
00:24:41,5DBCF4E0,0,0,19507,0,0,144
00:24:57,5DBCF6E0,0,0,19507,0,0,143
00:25:13,5DBCF8E0,0,0,19507,0,0,142
00:25:29,5DBCFAE0,0,0,19507,0,0,141
00:25:45,5DBCFCE0,0,0,19507,0,0,141
00:26:01,5DBCFEE0,0,0,19507,0,0,141
00:26:09,5DBCFFE0,0,0,19507,0,0,141
00:26:17,5DBD00E0,0,0,19507,0,0,141
00:26:33,5DBD02E0,0,0,19507,0,0,141
00:26:49,5DBD04E0,0,0,19507,0,0,142
00:27:05,5DBD06E0,0,0,19507,0,0,142
00:27:21,5DBD08E0,0,0,19507,0,0,143
00:27:37,5DBD0AE0,0,0,19507,0,0,143
00:27:53,5DBD0CE0,0,0,19507,0,0,143
00:28:09,5DBD0EE0,0,0,19507,0,0,144
00:28:25,5DBD10E0,0,0,19507,0,0,144
00:28:41,5DBD12E0,0,0,19507,0,0,144
00:28:57,5DBD14E0,0,0,19507,0,0,145
00:29:13,5DBD16E0,0,0,19507,0,0,145
00:29:29,5DBD18E0,0,0,19507,0,0,145
00:29:45,5DBD1AE0,0,0,19507,0,0,145
00:30:01,5DBD1CE0,0,0,19507,0,0,146
00:30:17,5DBD1EE0,0,0,19507,0,0,146
00:30:25,5DBD1FE0,0,0,19507,0,0,146
00:30:33,5DBD20E0,0,0,19507,0,0,146
00:30:49,5DBD22E0,0,0,19507,0,0,145
00:31:05,5DBD24E0,0,0,19507,0,0,144
00:31:21,5DBD26E0,0,0,19507,0,0,144
00:31:37,5DBD28E0,0,0,19507,0,0,143
00:31:53,5DBD2AE0,0,0,19507,0,0,142
00:32:09,5DBD2CE0,0,0,19507,0,0,142
00:32:25,5DBD2EE0,0,0,19507,0,0,141
00:32:41,5DBD30E0,0,0,19507,0,0,141
00:32:57,5DBD32E0,0,0,19507,0,0,141
00:33:13,5DBD34E0,0,0,19507,0,0,141
00:33:29,5DBD36E0,0,0,19507,0,0,142
00:33:45,5DBD38E0,0,0,19507,0,0,142
00:34:01,5DBD3AE0,0,0,19507,0,0,142
00:34:17,5DBD3CE0,0,0,19507,0,0,143
00:34:33,5DBD3EE0,0,0,19507,0,0,143
00:34:41,5DBD3FE0,0,0,19507,0,0,144
00:34:49,5DBD40E0,0,0,19507,0,0,144
00:35:05,5DBD42E0,0,0,19507,0,0,144
00:35:21,5DBD44E0,0,0,19507,0,0,144
00:35:37,5DBD46E0,0,0,19507,0,0,144
00:35:53,5DBD48E0,0,0,19507,0,0,145
00:36:09,5DBD4AE0,0,0,19507,0,0,145
00:36:25,5DBD4CE0,0,0,19507,0,0,145
00:36:41,5DBD4EE0,0,0,19507,0,0,146
00:36:57,5DBD50E0,0,0,19507,0,0,146
00:37:13,5DBD52E0,0,0,19507,0,0,146
00:37:29,5DBD54E0,0,0,19507,0,0,145
00:37:45,5DBD56E0,0,0,19507,0,0,144
00:38:01,5DBD58E0,0,0,19507,0,0,144
00:38:17,5DBD5AE0,0,0,19507,0,0,143
00:38:33,5DBD5CE0,0,0,19507,0,0,143
00:38:49,5DBD5EE0,0,0,19507,0,0,142
00:38:57,5DBD5FE0,0,0,19507,0,0,142
00:39:05,5DBD60E0,0,0,19507,0,0,141
00:39:21,5DBD62E0,0,0,19507,0,0,141
00:39:37,5DBD64E0,0,0,19507,0,0,141
00:39:53,5DBD66E0,0,0,19507,0,0,141
00:40:09,5DBD68E0,0,0,19507,0,0,142
00:40:25,5DBD6AE0,0,0,19507,0,0,142
00:40:41,5DBD6CE0,0,0,19507,0,0,142
00:40:57,5DBD6EE0,0,0,19507,0,0,143
00:41:13,5DBD70E0,0,0,19507,0,0,143
00:41:29,5DBD72E0,0,0,19507,0,0,144
00:41:45,5DBD74E0,0,0,19507,0,0,144
00:42:01,5DBD76E0,0,0,19507,0,0,144
00:42:17,5DBD78E0,0,0,19507,0,0,145
00:42:33,5DBD7AE0,0,0,19507,0,0,145
00:42:49,5DBD7CE0,0,0,19507,0,0,145
00:43:05,5DBD7EE0,0,0,19507,0,0,145
00:43:13,5DBD7FE0,0,0,19507,0,0,146
00:43:21,5DBD80E0,0,0,19507,0,0,146
00:43:37,5DBD82E0,0,0,19507,0,0,146
00:43:53,5DBD84E0,0,0,19507,0,0,146
00:44:09,5DBD86E0,0,0,19507,0,0,145
00:44:25,5DBD88E0,0,0,19507,0,0,145
00:44:41,5DBD8AE0,0,0,19507,0,0,144
00:44:57,5DBD8CE0,0,0,19507,0,0,143
00:45:13,5DBD8EE0,0,0,19507,0,0,143
00:45:29,5DBD90E0,0,0,19507,0,0,142
00:45:45,5DBD92E0,0,0,19507,0,0,141
00:46:01,5DBD94E0,0,0,19507,0,0,141
00:46:17,5DBD96E0,0,0,19507,0,0,140
00:46:33,5DBD98E0,0,0,19507,0,0,141
00:46:49,5DBD9AE0,0,0,19507,0,0,141
00:47:05,5DBD9CE0,0,0,19507,0,0,142
00:47:21,5DBD9EE0,0,0,19507,0,0,142
00:47:29,5DBD9FE0,0,0,19507,0,0,143
00:47:37,5DBDA0E0,0,0,19507,0,0,143
00:47:53,5DBDA2E0,0,0,19507,0,0,143
00:48:09,5DBDA4E0,0,0,19507,0,0,143
00:48:25,5DBDA6E0,0,0,19507,0,0,144
00:48:41,5DBDA8E0,0,0,19507,0,0,144
00:48:57,5DBDAAE0,0,0,19507,0,0,145
00:49:13,5DBDACE0,0,0,19507,0,0,145
00:49:29,5DBDAEE0,0,0,19507,0,0,145
00:49:45,5DBDB0E0,0,0,19507,0,0,145
00:50:01,5DBDB2E0,0,0,19507,0,0,145
00:50:17,5DBDB4E0,0,0,19507,0,0,145
00:50:33,5DBDB6E0,0,0,19507,0,0,146
00:50:49,5DBDB8E0,0,0,19507,0,0,146
00:51:05,5DBDBAE0,0,0,19507,0,0,146
00:51:21,5DBDBCE0,0,0,19507,0,0,145
00:51:37,5DBDBEE0,0,0,19507,0,0,144
00:51:45,5DBDBFE0,0,0,19507,0,0,144
00:51:53,5DBDC0E0,0,0,19507,0,0,144
00:52:09,5DBDC2E0,0,0,19507,0,0,143
00:52:25,5DBDC4E0,0,0,19507,0,0,142
00:52:41,5DBDC6E0,0,0,19507,0,0,142
00:52:57,5DBDC8E0,0,0,19507,0,0,141
00:53:13,5DBDCAE0,0,0,19507,0,0,141
00:53:29,5DBDCCE0,0,0,19507,0,0,141
00:53:45,5DBDCEE0,0,0,19507,0,0,141
00:54:01,5DBDD0E0,0,0,19507,0,0,141
00:54:17,5DBDD2E0,0,0,19507,0,0,142
00:54:33,5DBDD4E0,0,0,19507,0,0,143
00:54:49,5DBDD6E0,0,0,19507,0,0,143
00:55:05,5DBDD8E0,0,0,19507,0,0,144
00:55:21,5DBDDAE0,0,0,19507,0,0,144
00:55:37,5DBDDCE0,0,0,19507,0,0,144
00:55:53,5DBDDEE0,0,0,19507,0,0,144
00:56:01,5DBDDFE0,0,0,19507,0,0,145
00:56:09,5DBDE0E0,0,0,19507,0,0,145
00:56:25,5DBDE2E0,0,0,19507,0,0,145
00:56:41,5DBDE4E0,0,0,19507,0,0,145
00:56:57,5DBDE6E0,0,0,19507,0,0,146
00:57:13,5DBDE8E0,0,0,19507,0,0,146
00:57:29,5DBDEAE0,0,0,19507,0,0,146
00:57:45,5DBDECE0,0,0,19507,0,0,146
00:58:01,5DBDEEE0,0,0,19507,0,0,145
00:58:17,5DBDF0E0,0,0,19507,0,0,144
00:58:33,5DBDF2E0,0,0,19507,0,0,144
00:58:49,5DBDF4E0,0,0,19507,0,0,143
00:59:05,5DBDF6E0,0,0,19507,0,0,142
00:59:21,5DBDF8E0,0,0,19507,0,0,142
00:59:37,5DBDFAE0,0,0,19507,0,0,141
00:59:53,5DBDFCE0,0,0,19507,0,0,141
01:00:09,5DBDFEE0,0,0,19507,0,0,141
01:00:17,5DBDFFE0,0,0,19507,0,0,141
01:00:25,5DBE00E0,0,0,19507,0,0,141
01:00:41,5DBE02E0,0,0,19507,0,0,142
01:00:57,5DBE04E0,0,0,19507,0,0,142
01:01:13,5DBE06E0,0,0,19507,0,0,143
01:01:29,5DBE08E0,0,0,19507,0,0,143
01:01:45,5DBE0AE0,0,0,19507,0,0,143
01:02:01,5DBE0CE0,0,0,19507,0,0,144
01:02:17,5DBE0EE0,0,0,19507,0,0,144
01:02:33,5DBE10E0,0,0,19507,0,0,144
01:02:49,5DBE12E0,0,0,19507,0,0,145
01:03:05,5DBE14E0,0,0,19507,0,0,145
01:03:21,5DBE16E0,0,0,19507,0,0,145
01:03:37,5DBE18E0,0,0,19507,0,0,145
01:03:53,5DBE1AE0,0,0,19507,0,0,146
01:04:09,5DBE1CE0,0,0,19507,0,0,146
01:04:25,5DBE1EE0,0,0,19507,0,0,146
01:04:33,5DBE1FE0,0,0,19507,0,0,146
01:04:41,5DBE20E0,0,0,19507,0,0,146
01:04:57,5DBE22E0,0,0,19507,0,0,145
01:05:13,5DBE24E0,0,0,19507,0,0,144
01:05:29,5DBE26E0,0,0,19507,0,0,143
01:05:45,5DBE28E0,0,0,19507,0,0,143
01:06:01,5DBE2AE0,0,0,19507,0,0,142
01:06:17,5DBE2CE0,0,0,19507,0,0,142
01:06:33,5DBE2EE0,0,0,19507,0,0,141
01:06:49,5DBE30E0,0,0,19507,0,0,141
01:07:05,5DBE32E0,0,0,19507,0,0,141
01:07:21,5DBE34E0,0,0,19507,0,0,141
01:07:37,5DBE36E0,0,0,19507,0,0,142
01:07:53,5DBE38E0,0,0,19507,0,0,142
01:08:09,5DBE3AE0,0,0,19507,0,0,143
01:08:25,5DBE3CE0,0,0,19507,0,0,143
01:08:41,5DBE3EE0,0,0,19507,0,0,143
01:08:49,5DBE3FE0,0,0,19507,0,0,144
01:08:57,5DBE40E0,0,0,19507,0,0,144
01:09:13,5DBE42E0,0,0,19507,0,0,144
01:09:29,5DBE44E0,0,0,19507,0,0,145
01:09:45,5DBE46E0,0,0,19507,0,0,145
01:10:01,5DBE48E0,0,0,19507,0,0,145
01:10:17,5DBE4AE0,0,0,19507,0,0,145
01:10:33,5DBE4CE0,0,0,19507,0,0,145
01:10:49,5DBE4EE0,0,0,19507,0,0,145
01:11:05,5DBE50E0,0,0,19507,0,0,146
01:11:21,5DBE52E0,0,0,19507,0,0,146
01:11:37,5DBE54E0,0,0,19507,0,0,146
01:11:53,5DBE56E0,0,0,19507,0,0,145
01:12:09,5DBE58E0,0,0,19507,0,0,144
01:12:25,5DBE5AE0,0,0,19507,0,0,143
01:12:41,5DBE5CE0,0,0,19507,0,0,143
01:12:57,5DBE5EE0,0,0,19507,0,0,142
01:13:05,5DBE5FE0,0,0,19507,0,0,142
01:13:13,5DBE60E0,0,0,19507,0,0,142
01:13:29,5DBE62E0,0,0,19507,0,0,141
01:13:45,5DBE64E0,0,0,19507,0,0,141
01:14:01,5DBE66E0,0,0,19507,0,0,141
01:14:25,5DBE69E0,0,0,19507,0,0,141
01:14:57,5DBE6DE0,0,0,19507,0,0,142
01:15:29,5DBE71E0,0,0,19507,0,0,143
01:16:01,5DBE75E0,0,0,19507,0,0,144
01:16:33,5DBE79E0,0,0,19507,0,0,145
01:17:05,5DBE7DE0,0,0,19507,0,0,145
01:17:21,5DBE7FE0,0,0,19507,0,0,145
01:17:37,5DBE81E0,0,0,19507,0,0,146
01:18:09,5DBE85E0,0,0,19507,0,0,146
01:18:41,5DBE89E0,0,0,19507,0,0,144
01:19:13,5DBE8DE0,0,0,19507,0,0,143
01:19:45,5DBE91E0,0,0,19507,0,0,141
01:20:17,5DBE95E0,0,0,19507,0,0,141
01:20:49,5DBE99E0,0,0,19507,0,0,141
01:21:21,5DBE9DE0,0,0,19507,0,0,142
01:21:37,5DBE9FE0,0,0,19507,0,0,143
01:21:53,5DBEA1E0,0,0,19507,0,0,143
01:22:25,5DBEA5E0,0,0,19507,0,0,144
01:22:57,5DBEA9E0,0,0,19507,0,0,144
01:23:29,5DBEADE0,0,0,19507,0,0,145
01:24:01,5DBEB1E0,0,0,19507,0,0,145
01:24:33,5DBEB5E0,0,0,19507,0,0,146
01:25:05,5DBEB9E0,0,0,19507,0,0,145
01:25:37,5DBEBDE0,0,0,19507,0,0,144
01:25:53,5DBEBFE0,0,0,19507,0,0,143
01:26:09,5DBEC1E0,0,0,19507,0,0,142
01:26:41,5DBEC5E0,0,0,19507,0,0,141
01:27:13,5DBEC9E0,0,0,19507,0,0,141
01:27:45,5DBECDE0,0,0,19507,0,0,142
01:28:17,5DBED1E0,0,0,19507,0,0,142
01:28:49,5DBED5E0,0,0,19507,0,0,143
01:29:21,5DBED9E0,0,0,19507,0,0,144
01:29:53,5DBEDDE0,0,0,19507,0,0,144
01:30:09,5DBEDFE0,0,0,19507,0,0,145
01:30:25,5DBEE1E0,0,0,19507,0,0,145
01:30:57,5DBEE5E0,0,0,19507,0,0,146
01:31:29,5DBEE9E0,0,0,19507,0,0,146
01:32:01,5DBEEDE0,0,0,19507,0,0,145
01:32:33,5DBEF1E0,0,0,19507,0,0,143
01:33:05,5DBEF5E0,0,0,19507,0,0,142
01:33:37,5DBEF9E0,0,0,19507,0,0,141
01:34:09,5DBEFDE0,0,0,19507,0,0,141
01:34:25,5DBEFFE0,0,0,19507,0,0,141
01:34:41,5DBF01E0,0,0,19507,0,0,142
01:35:13,5DBF05E0,0,0,19507,0,0,142
01:35:45,5DBF09E0,0,0,19507,0,0,143
01:36:17,5DBF0DE0,0,0,19507,0,0,144
01:36:49,5DBF11E0,0,0,19507,0,0,145
01:37:21,5DBF15E0,0,0,19507,0,0,145
01:37:53,5DBF19E0,0,0,19507,0,0,146
01:38:25,5DBF1DE0,0,0,19507,0,0,146
01:38:41,5DBF1FE0,0,0,19507,0,0,145
01:38:57,5DBF21E0,0,0,19507,0,0,144
01:39:29,5DBF25E0,0,0,19507,0,0,143
01:40:01,5DBF29E0,0,0,19507,0,0,142
01:40:33,5DBF2DE0,0,0,19507,0,0,141
01:41:05,5DBF31E0,0,0,19507,0,0,141
01:41:37,5DBF35E0,0,0,19507,0,0,142
01:42:09,5DBF39E0,0,0,19507,0,0,143
01:42:41,5DBF3DE0,0,0,19507,0,0,144
01:42:57,5DBF3FE0,0,0,19507,0,0,144
01:43:13,5DBF41E0,0,0,19507,0,0,144
01:43:45,5DBF45E0,0,0,19507,0,0,145
01:44:17,5DBF49E0,0,0,19507,0,0,145
01:44:49,5DBF4DE0,0,0,19507,0,0,146
01:45:21,5DBF51E0,0,0,19507,0,0,145
01:45:53,5DBF55E0,0,0,19507,0,0,144
01:46:25,5DBF59E0,0,0,19507,0,0,143
01:46:57,5DBF5DE0,0,0,19507,0,0,141
01:47:13,5DBF5FE0,0,0,19507,0,0,141
01:47:29,5DBF61E0,0,0,19507,0,0,141
01:48:01,5DBF65E0,0,0,19507,0,0,141
01:48:33,5DBF69E0,0,0,19507,0,0,142
01:49:05,5DBF6DE0,0,0,19507,0,0,143
01:49:37,5DBF71E0,0,0,19507,0,0,144
01:50:09,5DBF75E0,0,0,19507,0,0,145
01:50:41,5DBF79E0,0,0,19507,0,0,145
01:51:13,5DBF7DE0,0,0,19507,0,0,146
01:51:29,5DBF7FE0,0,0,19507,0,0,146
01:51:45,5DBF81E0,0,0,19507,0,0,146
01:52:17,5DBF85E0,0,0,19507,0,0,145
01:52:49,5DBF89E0,0,0,19507,0,0,143
01:53:21,5DBF8DE0,0,0,19507,0,0,142
01:53:53,5DBF91E0,0,0,19507,0,0,141
01:54:25,5DBF95E0,0,0,19507,0,0,141
01:54:57,5DBF99E0,0,0,19507,0,0,142
01:55:29,5DBF9DE0,0,0,19507,0,0,143
01:55:45,5DBF9FE0,0,0,19507,0,0,143
01:56:01,5DBFA1E0,0,0,19507,0,0,143
01:56:33,5DBFA5E0,0,0,19507,0,0,144
01:57:05,5DBFA9E0,0,0,19507,0,0,145
01:57:37,5DBFADE0,0,0,19507,0,0,145
01:58:09,5DBFB1E0,0,0,19507,0,0,146
01:58:41,5DBFB5E0,0,0,19507,0,0,146
01:59:13,5DBFB9E0,0,0,19507,0,0,144
01:59:45,5DBFBDE0,0,0,19507,0,0,143
02:00:01,5DBFBFE0,0,0,19507,0,0,142
02:00:17,5DBFC1E0,0,0,19507,0,0,141
02:00:49,5DBFC5E0,0,0,19507,0,0,141
02:01:21,5DBFC9E0,0,0,19507,0,0,141
02:02:17,5DBFD0E0,0,0,19507,0,0,143
02:02:33,5DBFD2E0,0,0,19507,0,0,143
02:02:49,5DBFD4E0,0,0,19507,0,0,144
02:03:05,5DBFD6E0,0,0,19507,0,0,144
02:03:21,5DBFD8E0,0,0,19507,0,0,144
02:03:37,5DBFDAE0,0,0,19507,0,0,145
02:03:53,5DBFDCE0,0,0,19507,0,0,145
02:04:09,5DBFDEE0,0,0,19507,0,0,145
02:04:17,5DBFDFE0,0,0,19507,0,0,145
02:04:25,5DBFE0E0,0,0,19507,0,0,145
02:04:41,5DBFE2E0,0,0,19507,0,0,145
02:04:57,5DBFE4E0,0,0,19507,0,0,146
02:05:13,5DBFE6E0,0,0,19507,0,0,146
02:05:29,5DBFE8E0,0,0,19507,0,0,145
02:05:45,5DBFEAE0,0,0,19507,0,0,145
02:06:01,5DBFECE0,0,0,19507,0,0,144
02:06:17,5DBFEEE0,0,0,19507,0,0,143
02:06:33,5DBFF0E0,0,0,19507,0,0,142
02:06:49,5DBFF2E0,0,0,19507,0,0,142
02:07:05,5DBFF4E0,0,0,19507,0,0,141
02:07:21,5DBFF6E0,0,0,19507,0,0,141
02:07:37,5DBFF8E0,0,0,19507,0,0,141
02:07:53,5DBFFAE0,0,0,19507,0,0,141
02:08:09,5DBFFCE0,0,0,19507,0,0,142
02:08:25,5DBFFEE0,0,0,19507,0,0,142
02:08:33,5DBFFFE0,0,0,19507,0,0,142
02:08:41,5DC000E0,0,0,19507,0,0,142
02:08:57,5DC002E0,0,0,19507,0,0,143
02:09:13,5DC004E0,0,0,19507,0,0,143
02:09:29,5DC006E0,0,0,19507,0,0,144
02:09:45,5DC008E0,0,0,19507,0,0,144
02:10:01,5DC00AE0,0,0,19507,0,0,144
02:10:17,5DC00CE0,0,0,19507,0,0,144
02:10:33,5DC00EE0,0,0,19507,0,0,145
02:10:49,5DC010E0,0,0,19507,0,0,145
02:11:05,5DC012E0,0,0,19507,0,0,145
02:11:21,5DC014E0,0,0,19507,0,0,146
02:11:37,5DC016E0,0,0,19507,0,0,146
02:11:53,5DC018E0,0,0,19507,0,0,146
02:12:09,5DC01AE0,0,0,19507,0,0,146
02:12:25,5DC01CE0,0,0,19507,0,0,145
02:12:41,5DC01EE0,0,0,19507,0,0,144
02:12:49,5DC01FE0,0,0,19507,0,0,144
02:12:57,5DC020E0,0,0,19507,0,0,144
02:13:13,5DC022E0,0,0,19507,0,0,143
02:13:29,5DC024E0,0,0,19507,0,0,142
02:13:45,5DC026E0,0,0,19507,0,0,142
02:14:01,5DC028E0,0,0,19507,0,0,141
02:14:17,5DC02AE0,0,0,19507,0,0,141
02:14:33,5DC02CE0,0,0,19507,0,0,141
02:14:49,5DC02EE0,0,0,19507,0,0,141
02:15:05,5DC030E0,0,0,19507,0,0,142
02:15:21,5DC032E0,0,0,19507,0,0,142
02:15:37,5DC034E0,0,0,19507,0,0,142
02:15:53,5DC036E0,0,0,19507,0,0,143
02:16:09,5DC038E0,0,0,19507,0,0,143
02:16:25,5DC03AE0,0,0,19507,0,0,144
02:16:41,5DC03CE0,0,0,19507,0,0,144
02:16:57,5DC03EE0,0,0,19507,0,0,144
02:17:05,5DC03FE0,0,0,19507,0,0,144
02:17:13,5DC040E0,0,0,19507,0,0,145
02:17:29,5DC042E0,0,0,19507,0,0,145
02:17:45,5DC044E0,0,0,19507,0,0,145
02:18:01,5DC046E0,0,0,19507,0,0,145
02:18:17,5DC048E0,0,0,19507,0,0,146
02:18:33,5DC04AE0,0,0,19507,0,0,146
02:18:49,5DC04CE0,0,0,19507,0,0,146
02:19:05,5DC04EE0,0,0,19507,0,0,145
02:19:21,5DC050E0,0,0,19507,0,0,144
02:19:37,5DC052E0,0,0,19507,0,0,144
02:19:53,5DC054E0,0,0,19507,0,0,143
02:20:09,5DC056E0,0,0,19507,0,0,142
02:20:25,5DC058E0,0,0,19507,0,0,142
02:20:41,5DC05AE0,0,0,19507,0,0,141
02:20:57,5DC05CE0,0,0,19507,0,0,141
02:21:13,5DC05EE0,0,0,19507,0,0,141
02:21:21,5DC05FE0,0,0,19507,0,0,141
02:21:29,5DC060E0,0,0,19507,0,0,141
02:21:45,5DC062E0,0,0,19507,0,0,142
02:22:01,5DC064E0,0,0,19507,0,0,142
02:22:17,5DC066E0,0,0,19507,0,0,142
02:22:33,5DC068E0,0,0,19507,0,0,143
02:22:49,5DC06AE0,0,0,19507,0,0,143
02:23:05,5DC06CE0,0,0,19507,0,0,144
02:23:21,5DC06EE0,0,0,19507,0,0,144
02:23:37,5DC070E0,0,0,19507,0,0,144
02:23:53,5DC072E0,0,0,19507,0,0,144
02:24:09,5DC074E0,0,0,19507,0,0,145
02:24:25,5DC076E0,0,0,19507,0,0,145
02:24:41,5DC078E0,0,0,19507,0,0,145
02:24:57,5DC07AE0,0,0,19507,0,0,146
02:25:13,5DC07CE0,0,0,19507,0,0,146
02:25:29,5DC07EE0,0,0,19507,0,0,146
02:25:37,5DC07FE0,0,0,19507,0,0,145
02:25:45,5DC080E0,0,0,19507,0,0,145
02:26:01,5DC082E0,0,0,19507,0,0,144
02:26:17,5DC084E0,0,0,19507,0,0,143
02:26:33,5DC086E0,0,0,19507,0,0,143
02:26:49,5DC088E0,0,0,19507,0,0,142
02:27:05,5DC08AE0,0,0,19507,0,0,142
02:27:21,5DC08CE0,0,0,19507,0,0,141
02:27:37,5DC08EE0,0,0,19507,0,0,140
02:27:53,5DC090E0,0,0,19507,0,0,141
02:28:09,5DC092E0,0,0,19507,0,0,141
02:28:25,5DC094E0,0,0,19507,0,0,142
02:28:41,5DC096E0,0,0,19507,0,0,142
02:28:57,5DC098E0,0,0,19507,0,0,143
02:29:13,5DC09AE0,0,0,19507,0,0,143
02:29:29,5DC09CE0,0,0,19507,0,0,143
02:29:45,5DC09EE0,0,0,19507,0,0,144
02:29:53,5DC09FE0,0,0,19507,0,0,144
02:30:01,5DC0A0E0,0,0,19507,0,0,144
02:30:17,5DC0A2E0,0,0,19507,0,0,144
02:30:33,5DC0A4E0,0,0,19507,0,0,145
02:30:49,5DC0A6E0,0,0,19507,0,0,145
02:31:05,5DC0A8E0,0,0,19507,0,0,145
02:31:21,5DC0AAE0,0,0,19507,0,0,145
02:31:37,5DC0ACE0,0,0,19507,0,0,146
02:31:53,5DC0AEE0,0,0,19507,0,0,146
02:32:09,5DC0B0E0,0,0,19507,0,0,146
02:32:25,5DC0B2E0,0,0,19507,0,0,145
02:32:41,5DC0B4E0,0,0,19507,0,0,144
02:32:57,5DC0B6E0,0,0,19507,0,0,143
02:33:13,5DC0B8E0,0,0,19507,0,0,143
02:33:29,5DC0BAE0,0,0,19507,0,0,142
02:33:45,5DC0BCE0,0,0,19507,0,0,142
02:34:01,5DC0BEE0,0,0,19507,0,0,141
02:34:09,5DC0BFE0,0,0,19507,0,0,141
02:34:17,5DC0C0E0,0,0,19507,0,0,141
02:34:33,5DC0C2E0,0,0,19507,0,0,141
02:34:49,5DC0C4E0,0,0,19507,0,0,141
02:35:05,5DC0C6E0,0,0,19507,0,0,142
02:35:21,5DC0C8E0,0,0,19507,0,0,142
02:35:37,5DC0CAE0,0,0,19507,0,0,143
02:35:53,5DC0CCE0,0,0,19507,0,0,143
02:36:09,5DC0CEE0,0,0,19507,0,0,143
02:36:25,5DC0D0E0,0,0,19507,0,0,144
02:36:41,5DC0D2E0,0,0,19507,0,0,144
02:36:57,5DC0D4E0,0,0,19507,0,0,145
02:37:13,5DC0D6E0,0,0,19507,0,0,145
02:37:29,5DC0D8E0,0,0,19507,0,0,145
02:37:45,5DC0DAE0,0,0,19507,0,0,145
02:38:01,5DC0DCE0,0,0,19507,0,0,145
02:38:17,5DC0DEE0,0,0,19507,0,0,146
02:38:25,5DC0DFE0,0,0,19507,0,0,146
02:38:33,5DC0E0E0,0,0,19507,0,0,146
02:38:49,5DC0E2E0,0,0,19507,0,0,146
02:39:05,5DC0E4E0,0,0,19507,0,0,145
02:39:21,5DC0E6E0,0,0,19507,0,0,144
02:39:37,5DC0E8E0,0,0,19507,0,0,143
02:39:53,5DC0EAE0,0,0,19507,0,0,143
02:40:09,5DC0ECE0,0,0,19507,0,0,142
02:40:25,5DC0EEE0,0,0,19507,0,0,142
02:40:41,5DC0F0E0,0,0,19507,0,0,141
02:40:57,5DC0F2E0,0,0,19507,0,0,141
02:41:13,5DC0F4E0,0,0,19507,0,0,141
02:41:29,5DC0F6E0,0,0,19507,0,0,141
02:41:45,5DC0F8E0,0,0,19507,0,0,142
02:42:01,5DC0FAE0,0,0,19507,0,0,142
02:42:17,5DC0FCE0,0,0,19507,0,0,143
02:42:33,5DC0FEE0,0,0,19507,0,0,143
02:42:41,5DC0FFE0,0,0,19465,6,0,143
02:42:49,5DC100E0,0,0,19465,6,0,143
02:43:05,5DC102E0,0,0,19465,6,0,144
02:43:21,5DC104E0,0,0,19466,5,0,144
02:43:37,5DC106E0,0,0,19466,5,0,144
02:43:53,5DC108E0,0,0,19464,4,0,145
02:44:09,5DC10AE0,0,0,19464,4,0,145
02:44:25,5DC10CE0,0,0,19465,8,0,145
02:44:41,5DC10EE0,0,0,19465,8,0,145
02:44:57,5DC110E0,0,0,19465,5,0,145
02:45:13,5DC112E0,0,0,19465,5,0,146
02:45:29,5DC114E0,0,0,19464,6,0,146
02:45:45,5DC116E0,0,0,19464,6,0,146
02:46:01,5DC118E0,0,0,19466,5,0,145
02:46:17,5DC11AE0,0,0,19466,5,0,144
02:46:33,5DC11CE0,0,0,19463,5,0,143
02:46:49,5DC11EE0,0,0,19463,5,0,143
02:46:57,5DC11FE0,0,0,19464,7,0,142
02:47:05,5DC120E0,0,0,19464,7,0,142
02:47:21,5DC122E0,0,0,19464,7,0,141
02:47:37,5DC124E0,0,0,19465,8,0,141
02:47:53,5DC126E0,0,0,19465,8,0,141
02:48:09,5DC128E0,0,0,19465,7,0,141
02:48:25,5DC12AE0,0,0,19465,7,0,141
02:48:41,5DC12CE0,0,0,19464,7,0,142
02:48:57,5DC12EE0,0,0,19464,7,0,142
02:49:13,5DC130E0,0,0,19466,7,0,143
02:49:29,5DC132E0,0,0,19466,7,0,143
02:49:45,5DC134E0,0,0,19466,3,0,143
02:50:01,5DC136E0,0,0,19466,3,0,144
02:50:17,5DC138E0,0,0,19466,3,0,144
02:50:33,5DC13AE0,0,0,19466,3,0,144
02:50:49,5DC13CE0,0,0,19462,1,0,145
02:51:05,5DC13EE0,0,0,19462,1,0,145
02:51:13,5DC13FE0,0,0,19462,4,0,145
02:51:21,5DC140E0,0,0,19462,4,0,145
02:51:37,5DC142E0,0,0,19462,4,0,145
02:51:53,5DC144E0,0,0,19462,3,0,146
02:52:09,5DC146E0,0,0,19462,3,0,146
02:52:25,5DC148E0,0,0,19461,3,0,146
02:52:41,5DC14AE0,0,0,19461,3,0,146
02:52:57,5DC14CE0,0,0,19461,5,0,145
02:53:13,5DC14EE0,0,0,19461,5,0,144
02:53:29,5DC150E0,0,0,19461,5,0,143
02:53:45,5DC152E0,0,0,19461,5,0,143
02:54:01,5DC154E0,0,0,19458,6,0,142
02:54:17,5DC156E0,0,0,19458,6,0,142
02:54:33,5DC158E0,0,0,19458,8,0,141
02:54:49,5DC15AE0,0,0,19458,8,0,141
02:55:05,5DC15CE0,0,0,19458,6,0,141
02:55:21,5DC15EE0,0,0,19458,6,0,141
02:55:29,5DC15FE0,0,0,19459,5,0,142
02:55:37,5DC160E0,0,0,19459,5,0,142
02:55:53,5DC162E0,0,0,19459,5,0,142
02:56:09,5DC164E0,0,0,19457,7,0,143
02:56:25,5DC166E0,0,0,19457,7,0,143
02:56:41,5DC168E0,0,0,19457,6,0,144
02:56:57,5DC16AE0,0,0,19457,6,0,144
02:57:13,5DC16CE0,0,0,19457,4,0,144
02:57:29,5DC16EE0,0,0,19457,4,0,145
02:57:45,5DC170E0,0,0,19456,6,0,145
02:58:01,5DC172E0,0,0,19456,6,0,145
02:58:17,5DC174E0,0,0,19455,6,1,145
02:58:33,5DC176E0,0,0,19455,6,1,146
02:58:49,5DC178E0,0,0,19455,5,0,146
02:59:05,5DC17AE0,0,0,19455,5,0,146
02:59:21,5DC17CE0,0,0,19456,3,0,146
02:59:37,5DC17EE0,0,0,19456,3,0,145
02:59:45,5DC17FE0,0,0,19453,9,0,145
02:59:53,5DC180E0,0,0,19453,9,0,144
03:00:09,5DC182E0,0,0,19453,9,0,143
03:00:25,5DC184E0,0,0,19454,7,0,143
03:00:41,5DC186E0,0,0,19454,7,0,142
03:00:57,5DC188E0,0,0,19454,7,0,142
03:01:13,5DC18AE0,0,0,19454,7,0,141
03:01:29,5DC18CE0,0,0,19453,9,0,141
03:01:45,5DC18EE0,0,0,19453,9,0,141
03:02:01,5DC190E0,0,0,19455,9,0,141
03:02:17,5DC192E0,0,0,19455,9,0,142
03:02:33,5DC194E0,0,0,19454,7,0,142
03:02:49,5DC196E0,0,0,19454,7,0,143
03:03:05,5DC198E0,0,0,19454,9,0,143
03:03:21,5DC19AE0,0,0,19454,9,0,144
03:03:37,5DC19CE0,0,0,19453,7,0,144
03:03:53,5DC19EE0,0,0,19453,7,0,144
03:04:01,5DC19FE0,0,0,19453,8,0,144
03:04:09,5DC1A0E0,0,0,19453,8,0,144
03:04:25,5DC1A2E0,0,0,19453,8,0,145
03:04:41,5DC1A4E0,0,0,19453,7,0,145
03:04:57,5DC1A6E0,0,0,19453,7,0,145
03:05:13,5DC1A8E0,0,0,19453,7,0,146